Location: Acheville
(50.3840°N, 2.8827°E)
Time: 15:42:55
(UTC+00:00)

Cosmos 1602 Rocket - Pass Details

Date: 24 October 2021
Orbit: 602 x 634 km, 82.5° (Epoch: 27 November)

Event Time Altitude Azimuth Distance (km) Brightness Sun altitude
Rises 17:43:31 0° 354° (N) 2,890 7.0 -10.9°
Reaches altitude 10° 17:45:51 10° 1° (N) 1,976 6.1 -11.3°
Maximum altitude 17:50:01 43° 74° (ENE) 858 3.8 -12.0°
Drops below altitude 10° 17:54:08 10° 147° (SSE) 1,949 5.8 -12.6°
Sets 17:56:25 0° 154° (SSE) 2,845 6.7 -13.0°
